Torna al catalogo

YZ-1 R/B

AttivoMEO
NORAD 43625·ROCKET BODY·🇨🇳 China

Lanciato Sep 19, 2018 da Xichang Satellite Launch Center

Loading…

Prossimi Passaggi (prossime 24 ore)

TLE

AggiornatoSource: Space-Track

Epoca: Sep 13, 2026, 11:39 UTC

1 43625U 18072D   26256.48544183 -.00000021  00000-0  00000+0 0  9999
2 43625  56.5101  69.0860 0109651  67.5766 293.6090  1.77481554 51757

Traccia YZ-1 R/B in tempo reale con AllMySat

Download on the App Store